Temp
71 72 73 72 71 71 71 71 71 72 72 72 73 72 72 73 73 73 73 73 72 72 71 71 71 71 70 70 69 69 70 70
71 71 71 70 70 70 70 70 71 71 71 71 71 71 72 72 72 73 72 72 72 71 70 70 70 70 69 68 68 69 69 71
72 72 72 70 70 71 70 71 70 70 71 71 69 71 71 72 71 71 72 71 71 70 70 69 69 69 69 69 68 69 70 69
72 73 73 72 77 71 70 71 71 71 71 71 71 70 70 73 71 70 71 70 70 70 69 68 67 66 66 68 66 69 70 70
74 74 73 74 77 72 71 71 70 71 71 71 71 72 71 71 69 71 69 69 68 68 67 66 67 67 67 66 68 69 68 67
71 72 73 74 77 74 73 72 71 71 72 71 71 70 70 69 69 69 68 68 66 66 66 66 67 69 69 68 69 69 66 69
71 70 71 73 74 75 75 74 73 73 73 72 72 72 70 70 70 70 70 68 68 67 66 68 68 68 70 71 73 73 70 68
66 69 69 70 72 74 72 74 75 74 74 74 73 73 72 71 70 71 70 70 70 69 69 68 69 68 70 74 74 73 72 67
63 65 69 68 70 74 73 72 73 75 75 74 74 73 71 72 70 71 71 70 71 70 69 70 68 69 70 73 72 73 75 72
58 63 63 63 62 69 73 70 72 72 76 75 74 74 72 72 72 71 71 70 72 70 71 66 71 71 68 71 72 69 73 73
53 56 59 60 60 61 69 74 70 73 72 74 75 75 73 73 73 72 70 71 71 72 70 68 65 67 70 70 71 71 70 72
52 53 55 56 58 60 63 67 71 71 70 74 74 75 74 73 73 72 72 71 71 70 67 66 67 68 72 69 70 70 70 70
48 49 50 53 54 56 57 68 68 69 72 74 75 74 74 73 73 71 73 72 71 70 67 66 64 67 66 63 65 68 68 69
46 46 47 49 53 55 56 62 66 69 71 74 73 76 73 74 73 72 72 71 69 69 70 64 64 64 62 60 60 60 64 66
44 44 45 48 51 53 54 56 62 65 67 69 73 75 76 73 74 72 72 72 70 69 69 70 65 63 64 61 56 55 58 61
42 43 45 48 48 49 50 50 55 64 67 71 72 75 75 72 73 73 72 72 71 69 70 69 68 65 62 64 62 61 57 56
41 42 43 45 46 49 50 50 54 57 63 66 68 71 72 73 71 72 71 72 70 69 68 67 67 66 67 60 62 60 60 58
40 40 40 43 44 47 48 50 51 53 56 62 66 68 71 73 71 72 70 70 68 68 68 68 67 67 66 65 64 63 61 60
38 38 38 40 41 44 47 49 50 50 54 57 62 65 67 70 70 70 71 69 69 69 68 67 67 65 65 65 64 63 61 60
35 35 36 39 39 41 43 48 48 49 49 53 59 63 66 70 67 70 71 71 69 68 67 66 66 65 62 61 62 62 62 61
MSLP
1010.83 1011.03 1011.36 1011.60 1011.93 1012.19 1012.38 1012.57 1012.75 1012.87 1013.02 1013.27 1013.41 1013.89 1014.35 1014.94 1015.39 1015.65 1015.83 1015.97 1016.15 1016.49 1016.60 1016.88 1017.18 1017.24 1017.14 1017.35 1017.62 1017.93 1018.00 1018.17
1010.62 1010.74 1011.09 1011.50 1011.86 1012.16 1012.40 1012.66 1012.86 1012.86 1013.00 1013.32 1013.64 1013.86 1014.30 1014.62 1015.09 1015.57 1015.90 1016.05 1016.14 1016.36 1016.60 1016.81 1016.97 1017.16 1017.13 1017.25 1017.38 1017.74 1017.78 1017.98
1010.79 1010.92 1010.89 1011.15 1011.59 1011.92 1012.18 1012.54 1012.83 1012.97 1013.13 1013.37 1013.70 1013.96 1014.17 1014.56 1014.92 1015.30 1015.73 1016.07 1016.22 1016.31 1016.54 1016.78 1016.97 1017.19 1017.10 1017.19 1017.29 1017.67 1017.70 1017.83
1010.88 1010.69 1010.71 1010.77 1011.01 1011.56 1011.86 1012.13 1012.48 1012.78 1013.01 1013.30 1013.61 1013.79 1014.05 1014.25 1014.67 1015.04 1015.44 1015.84 1016.18 1016.32 1016.50 1016.69 1016.95 1017.17 1017.17 1017.16 1017.25 1017.48 1017.72 1017.76
1010.96 1011.14 1010.52 1010.37 1010.30 1010.94 1011.60 1011.82 1012.09 1012.40 1012.59 1012.84 1013.09 1013.44 1013.74 1014.05 1014.42 1014.85 1015.29 1015.72 1016.09 1016.33 1016.50 1016.66 1016.82 1016.96 1017.12 1017.16 1017.06 1017.31 1017.67 1017.93
1010.82 1011.09 1011.11 1010.81 1010.03 1010.05 1010.66 1011.31 1011.79 1012.02 1012.24 1012.46 1012.67 1012.88 1013.30 1013.69 1014.10 1014.46 1014.90 1015.28 1015.82 1016.15 1016.35 1016.42 1016.52 1016.70 1016.83 1016.81 1016.84 1017.18 1017.42 1017.70
1011.14 1010.61 1010.43 1010.62 1010.76 1010.06 1009.76 1010.30 1010.62 1011.02 1011.50 1011.89 1012.23 1012.42 1012.65 1012.96 1013.39 1013.90 1014.32 1014.79 1015.25 1015.76 1016.05 1016.16 1016.21 1016.32 1016.40 1016.45 1016.40 1016.72 1017.13 1017.36
1012.53 1011.88 1010.73 1010.05 1009.85 1010.01 1009.51 1009.41 1009.70 1010.16 1010.63 1011.01 1011.43 1011.58 1011.90 1012.31 1012.86 1013.24 1013.73 1014.23 1014.57 1015.00 1015.45 1015.76 1015.80 1015.87 1016.13 1016.01 1016.11 1016.18 1016.66 1016.94
1013.88 1012.71 1012.34 1010.87 1009.35 1009.00 1009.14 1009.04 1008.69 1009.70 1009.68 1010.11 1010.66 1011.10 1011.16 1011.53 1012.10 1012.59 1012.87 1013.52 1014.07 1014.49 1014.89 1015.11 1015.49 1015.48 1015.70 1015.57 1015.69 1015.79 1015.95 1016.54
1015.08 1014.02 1012.69 1012.26 1011.53 1009.58 1008.46 1008.75 1008.14 1008.30 1009.07 1009.15 1009.67 1010.30 1010.54 1010.74 1011.34 1011.90 1012.22 1012.75 1013.30 1013.99 1014.40 1014.85 1015.04 1015.16 1015.24 1015.24 1015.42 1015.55 1015.63 1015.98
1016.01 1015.08 1013.81 1012.93 1012.12 1010.91 1009.34 1007.82 1008.18 1007.74 1007.66 1008.72 1008.42 1009.00 1009.45 1009.94 1010.60 1011.15 1011.54 1012.04 1012.57 1013.07 1013.64 1013.94 1014.59 1014.83 1014.95 1015.07 1015.21 1015.34 1015.40 1015.45
1017.29 1016.27 1015.18 1013.79 1012.76 1011.57 1009.95 1008.39 1007.62 1007.75 1007.43 1007.22 1007.58 1007.73 1008.36 1009.18 1009.81 1010.31 1010.64 1011.40 1011.73 1012.31 1012.73 1013.20 1013.64 1014.24 1014.53 1014.88 1014.97 1015.16 1015.15 1015.27
1017.77 1016.81 1015.84 1014.95 1013.13 1012.28 1011.06 1008.96 1007.53 1007.06 1007.17 1007.05 1006.55 1006.75 1007.03 1007.75 1008.68 1009.38 1009.93 1010.44 1011.03 1011.54 1012.18 1012.81 1013.33 1013.48 1014.26 1014.68 1015.03 1014.95 1014.93 1015.18
1018.18 1017.52 1016.72 1015.45 1014.21 1012.59 1011.72 1009.48 1006.97 1006.54 1006.41 1006.50 1006.35 1006.17 1006.43 1006.68 1007.00 1008.01 1008.93 1009.73 1010.36 1010.72 1011.19 1011.97 1012.64 1012.99 1013.80 1014.49 1014.89 1015.09 1014.66 1014.49
1018.74 1018.12 1017.11 1015.86 1014.33 1012.55 1010.67 1009.08 1006.95 1006.08 1005.96 1005.86 1005.70 1005.54 1005.65 1005.57 1006.21 1006.80 1007.72 1008.52 1009.14 1009.66 1010.17 1010.78 1011.69 1012.43 1012.66 1013.57 1014.61 1014.54 1014.59 1014.33
1019.37 1018.37 1017.24 1015.92 1014.81 1013.02 1011.82 1010.47 1008.40 1006.16 1005.21 1004.91 1004.90 1004.74 1004.51 1004.09 1005.13 1005.55 1006.24 1007.14 1008.11 1008.67 1009.40 1009.80 1010.70 1011.53 1012.38 1012.32 1012.63 1012.99 1013.88 1014.26
1019.57 1018.53 1017.37 1016.01 1014.91 1013.55 1011.89 1010.13 1008.58 1007.00 1005.44 1004.54 1004.15 1003.87 1003.94 1004.26 1003.82 1004.24 1004.87 1005.55 1006.65 1007.65 1008.55 1009.14 1009.65 1010.26 1010.71 1011.69 1012.18 1012.59 1013.03 1013.40
1019.86 1018.79 1017.55 1016.19 1015.10 1013.46 1012.01 1010.51 1008.67 1007.19 1005.96 1004.75 1003.77 1003.33 1003.27 1003.02 1002.80 1002.58 1003.23 1004.14 1005.36 1006.24 1007.26 1007.94 1008.45 1009.21 1009.99 1010.49 1010.86 1011.77 1011.95 1012.75
1020.03 1018.97 1017.58 1016.49 1015.05 1013.23 1011.68 1010.30 1008.76 1007.46 1006.15 1004.95 1003.95 1003.00 1002.43 1001.92 1000.38 1001.31 1003.09 1003.12 1004.45 1005.30 1006.08 1006.77 1007.44 1008.28 1008.99 1009.70 1010.45 1010.89 1011.39 1011.79
1020.67 1019.11 1017.72 1016.10 1014.74 1013.27 1011.99 1010.51 1008.85 1007.78 1006.53 1005.06 1003.79 1002.88 1002.59 1002.07 1000.37 998.42 1001.92 1002.61 1003.29 1004.59 1005.37 1006.08 1006.83 1007.30 1008.15 1009.11 1010.02 1010.52 1010.92 1011.34
Wind_Speed
7 7 7 9 9 9 9 10 11 12 12 13 14 14 13 12 11 10 10 10 10 9 11 10 7 5 2 2 2 3 4 7
9 8 8 6 6 8 8 9 10 11 12 12 12 13 13 13 12 10 10 10 10 10 10 10 8 5 2 1 4 7 4 7
6 7 8 8 7 7 9 9 9 9 10 11 10 6 9 11 10 12 11 10 10 11 10 9 8 6 4 2 3 1 5 4
6 9 10 10 8 7 7 8 6 7 7 9 6 6 7 9 10 13 12 11 10 10 10 10 7 3 3 3 1 2 4 4
5 5 8 11 10 7 5 5 6 6 9 9 7 6 7 6 5 6 6 9 5 5 5 4 5 4 4 4 4 2 3 2
4 2 6 9 8 9 9 7 7 7 8 10 8 6 7 6 6 7 7 6 6 5 4 5 6 6 6 6 6 3 4 3
14 2 0 8 9 7 10 10 10 10 10 11 9 8 7 8 8 8 8 7 7 7 6 6 6 6 6 8 5 6 6 5
23 24 9 6 10 13 9 9 11 11 11 11 14 10 8 9 8 9 8 8 8 8 8 7 7 5 6 8 6 5 7 6
23 25 24 14 7 10 9 9 9 10 11 14 16 12 10 11 8 9 9 8 10 8 8 7 5 5 7 7 6 6 5 8
24 22 24 20 22 10 7 7 8 11 10 12 17 16 13 12 10 9 8 8 9 7 8 5 8 8 5 5 6 5 6 6
24 24 24 24 20 16 12 12 7 8 10 10 18 18 15 13 11 10 10 9 9 10 7 7 4 4 4 4 4 5 6 5
20 20 22 25 16 14 13 7 10 9 8 12 17 16 17 12 11 12 11 9 10 8 6 3 4 6 5 4 4 4 4 4
21 23 24 18 16 14 14 13 6 8 11 13 16 17 19 17 12 12 13 12 12 11 6 7 4 5 3 1 2 5 6 5
22 20 21 19 13 14 12 15 7 8 9 14 15 18 19 19 17 14 15 11 12 12 13 5 5 5 5 3 2 4 3 5
22 22 21 19 21 15 14 14 7 5 8 9 15 18 21 20 19 14 15 13 13 14 13 16 8 5 7 6 3 6 3 3
20 22 23 17 20 16 16 13 13 10 10 11 14 20 23 19 20 17 16 13 14 13 12 13 11 11 3 5 3 6 5 2
20 21 21 20 18 17 15 16 12 10 8 10 15 17 20 23 20 20 17 15 14 15 14 13 11 10 10 4 6 3 2 2
20 22 23 21 19 19 18 18 17 12 12 10 12 13 16 26 24 22 18 17 16 14 16 17 15 11 10 8 8 9 9 7
21 21 22 20 20 20 19 18 16 12 13 8 10 12 14 21 26 21 17 17 16 15 14 16 15 12 12 9 6 7 3 3
21 23 21 21 21 21 19 17 11 10 10 9 9 10 10 20 23 22 23 19 15 13 11 12 13 13 10 7 5 4 4 4
Wind_Direction
140 143 151 154 162 170 170 169 171 171 166 166 158 154 152 152 156 159 155 150 147 147 145 148 154 162 191 59 63 78 107 147
156 160 158 159 161 171 170 175 180 176 170 168 161 155 156 157 160 164 161 157 156 155 154 156 157 173 200 346 359 23 113 130
161 167 172 162 170 180 173 177 181 183 174 165 152 165 162 162 163 162 165 167 167 161 163 160 160 175 198 249 358 79 122 138
201 181 180 172 176 168 172 176 182 185 181 174 173 167 171 169 171 167 169 170 170 168 169 163 160 178 217 239 242 144 142 148
267 244 192 183 185 163 181 182 179 185 185 177 180 179 178 175 162 170 164 166 167 167 166 181 190 189 206 215 230 171 143 106
41 144 230 221 203 177 175 181 181 186 192 185 184 186 180 174 171 167 166 167 167 170 182 193 205 211 202 220 215 135 154 132
336 339 150 224 244 209 177 187 184 186 187 188 190 193 184 178 172 171 175 170 173 179 183 200 213 214 209 208 219 164 168 161
338 349 297 277 233 235 209 186 191 184 188 190 192 195 190 183 176 176 177 176 181 179 186 197 215 201 211 199 205 212 169 159
348 340 348 326 273 241 221 202 181 198 191 189 191 198 187 184 176 183 180 176 183 184 194 198 198 215 198 196 193 205 189 175
339 338 338 343 336 299 248 244 208 181 206 188 192 197 192 185 186 187 179 171 185 180 194 188 201 198 210 209 197 189 189 168
342 339 334 338 330 321 293 245 249 215 184 208 190 196 191 188 189 188 185 186 186 193 189 171 173 176 195 203 207 199 189 179
340 337 333 332 330 326 313 269 250 246 229 209 197 194 194 187 189 188 188 192 190 189 176 177 164 190 177 177 190 221 196 197
346 335 333 332 329 326 326 287 257 246 241 239 215 206 192 186 188 185 192 192 194 189 168 169 188 169 139 163 181 205 181 195
339 335 329 325 320 316 305 288 243 239 237 238 239 222 201 195 185 189 188 189 191 187 189 160 175 169 158 124 185 315 279 226
335 330 326 321 320 319 319 326 275 237 241 243 240 234 213 200 193 181 185 190 194 191 189 192 180 179 172 150 150 213 170 222
330 331 325 322 322 320 316 300 296 266 244 235 238 239 222 204 196 189 183 186 191 189 186 190 176 186 176 199 166 152 182 197
333 327 325 325 328 320 318 309 305 304 280 243 239 242 232 216 202 191 189 188 185 182 188 188 190 184 195 162 207 182 156 147
339 334 329 329 328 322 320 318 312 310 297 270 244 244 241 226 206 196 187 185 178 179 188 191 192 196 198 199 197 197 208 203
338 337 331 330 331 330 333 324 320 303 289 276 276 259 248 241 220 190 193 181 184 190 187 190 188 188 193 203 200 199 157 173
334 335 333 336 336 337 335 327 334 322 310 289 274 269 279 275 264 184 200 183 184 184 183 183 184 192 175 164 185 199 172 184